Погода в Салина-Крус

Мексика     16°11′48″N   95°12′05″W
темп.,
°C
ветер,
м/с
пор.,
м/с
влажн.,
%
обл.,
%
осадки,
мм/ч
давл.,
гПа
погр.,
м
5 марта, пт
пт500:00+23ссз36750 0.0 1015208
03:00+22ссз35770 0.0 1013138
06:00+21ссз34780 0.0 1013112
09:00+29ссз12470 0.0 1013630
12:00+33юв43371 0.0 10121261
15:00+31ююв56430 0.0 1009915
18:00+28ю46590 0.0 1009575
21:00+23юз11830 0.0 101356
6 марта, сб
сб600:00+22ссз23850 0.0 101454
03:00+22ссз23830 0.0 101363
06:00+22ссз34780 0.0 1013123
09:00+29с813460 0.0 10151595
12:00+33с914340 0.0 10151920
15:00+31с1116404 0.0 10121743
18:00+27с1018482 0.0 10131399
21:00+23ссз818490 0.0 10161300
7 марта, вс
вс700:00+22ссз818550 0.0 10171279
03:00+21с717550 0.0 10161156
06:00+21с716530 0.0 10171067
09:00+25с816380 0.0 10191290
12:00+29с915330 0.0 10171390
15:00+30ссв1015340 0.0 10151459
18:00+26с917440 0.0 10161388
21:00+22с918610 0.0 10191238
8 марта, пн
пн800:00+21с818590 0.0 10201202
03:00+21с817620 0.0 10181139
06:00+21с8176348 0.0 10191153
09:00+25с10184640 0.0 10211359
12:00+29с11173645 0.0 10191532
15:00+29с111737100 0.0 10161557
18:00+26с11194493 0.0 10171463
21:00+23с919527 0.0 10191331
9 марта, вт
вт900:00+23с818544 0.0 10201232
03:00+22с717553 0.0 10191179
06:00+22ссз7175745 0.0 10191130
09:00+26с8164479 0.0 10201217
12:00+31с9153290 0.0 10181444
15:00+32ссв10143099 0.0 10141572
18:00+28с9164149 0.0 10151377
21:00+24ссз716580 0.0 10181195